Location: Friaudour
(46.0460°N, 1.2873°E)
Time: 10:15:20
(UTC+00:00)

Meteor 1-4 Rocket - Pass Details

Date: 14 July 2020
Orbit: 449 x 502 km, 81.2° (Epoch: 05 August)

Event Time Altitude Azimuth Distance (km) Brightness Sun altitude
Rises 00:15:24 0° 355° (N) 2,589 7.7 -22.2°
Reaches altitude 10° 00:17:37 10° 2° (N) 1,693 6.5 -22.2°
Maximum altitude 00:21:10 43° 75° (ENE) 695 3.4 -22.2°
Enters shadow 00:21:23 42° 86° (E) 700 3.3 -22.2°
